STARLINK-36724, 67914

Orbit data source: Space-Track

STARLINK-36724, 67914 is a payload satellite owned by SpaceX/Seattle (US) in LEO that was launched on Sun, 22 Feb 2026 UTC via an FALCON 9 launch vehicle from the Air Force Eastern Test Range (AFETR). Payload-class satellites include a variety of spacecraft equipped with specific instruments for various scientific and technological missions. These include communications satellites like Starlink; space stations such as the ISS; scientific satellites like the Hubble; Earth observation satellites from companies like Planet Labs, Umbra, and HawkEye 360; GPS; miniature CubeSats for education and research; and military/defense satellites.

Loading next visibility...
Identifier
67914, 2026-036L
Orbit
LEO
Country
Flag of USUS
Related business
Manufacturer
SpaceX/Seattle
Mission
Operational spacecraft
Bus & Motor
STARLINK V2MO, Unknown motor
Mass
575 kg wet, ~530 kg dry
Launch date (UTC)
2026-02-22 (2 months ago)
Launch vehicle
FALCON 9
Launch site
Air Force Eastern Test Range (AFETR)
Object type
Payload
Rocket body
Debris
Shape & HBR
Unknown shape, 17.7 m
Radar Cross Section
RCS unknown

Expand to show TLE details & history
Last TLE update: 12 hours ago

TLE from 12 hours ago
0 STARLINK-36724
1 67914U 26036L   26103.86202404  .00011339  00000-0  42086-3 0  9992
2 67914  42.9989  46.4108 0000938 258.3272 101.7474 15.27586405  9109
Epoch: 2026-04-13T20:41Z
TLE epoch observation values (Epoch: 2026-04-13T20:41:18.877Z)
Latitude
-0.00003°
Longitude
-105.96442°
Altitude
482.936 km
Speed
7.626 km/s
True Right ascension
03h 05m 38s
True Declination
0° 00' 00"
Sunlit
Object was in daylight at epoch
Visualization orbit readout
Latitude
Unknown
Longitude
Unknown
Altitude
Unknown
Speed
Unknown
Apparent Right ascension
Unknown
Apparent Declination
Unknown
Sunlit
N/A
Visualization observer readout
Local Sidereal Time
15:12:20
Azimuth
Unknown
Elevation
Unknown
Doppler factor
Unknown
Orbital elements
Apogee altitude
485.619 km
Perigee altitude
484.332 km
Semi-major axis
6,863.112 km
Eccentricity
0.00009
Inclination
42.9989°
RAAN
46.4108°
Arg. of periapsis
258.3272°
True anomaly
101.75792°
Mean anomaly
101.7474°
Eccentric anomaly
101.75266°
Mean motion
3.81735 °/min
Orbital period
94.31 mins
BSTAR
0.00042086
Loading maneuver chart data...
Computing Atmospheric mass density...
Loading historical data...
Loading historical data...
Loading historical data...
Loading historical data...
Loading historical data...
Loading historical data...
Loading historical data...

Documentation

Showing up to 5 results
|